Starlink 30771

operational
NORAD ID: 58169 Int'l Des: 2023-166 Owner: SPXS Country: US Constellation: starlink
LEOCIRCULAR

关于 Starlink 30771

正在加载描述...

实时位置

正在加载3D地球...

即将过境

高度历史

Altitude vs Time

uPlot chart will show altitude changes over time

两行轨道根数

1 58169U 23166V 25257.48983410 .00000089 00000-0 15145-4 0 9992
2 58169 53.1611 317.9505 0001087 76.9856 283.1266 15.30182843106207
Epoch: Sep 14, 2025 • Age: 49 hours

当前状态

高度 480.4 km
速度 7.63 km/s
星下点 50.26°N, 173.65°W
发射日期 Oct 29, 2023
运行时间 1.8 years
类型 internet

技术详情

分类 Payload
质量 730.00 kg
干质量 700.00 kg
总质量 730.00 kg
长度 0.30 m
直径 4.10 m
跨度 29.00 m
形状 Box + pan
制造商 SPXS
平台类型 Starlink V2M
阶段状态 In Orbit
所有者/国家 SPXS/US

大型星座

Loading constellations...